Location: Aranbee
(34.0885°N, 118.2342°W)
Time: 21:57:32
(UTC+00:00)

Tiangong - Visible Passes

Search period start: 21 January 2022 00:00
Search period end: 31 January 2022 00:00
Orbit: 383 x 386 km, 41.5° (Epoch: 21 January)

Date Brightness Start Highest point End Pass type
(mag) Time Alt. Az. Time Alt. Az. Time Alt. Az.
24 Jan 3.3 02:46:33 10° S 02:47:55 17° SSE 02:47:55 17° SSE visible
25 Jan 3.8 03:22:38 10° WSW 03:23:38 19° SW 03:23:38 19° SW visible
26 Jan 1.9 02:23:10 10° SW 02:26:07 37° SSE 02:27:02 29° ESE visible
27 Jan 1.9 03:00:00 10° WSW 03:02:34 49° WNW 03:02:34 49° WNW visible
28 Jan 1.1 02:00:10 10° WSW 02:03:19 76° SSE 02:05:48 15° ENE visible
28 Jan 4.4 03:37:36 10° WNW 03:38:01 12° WNW 03:38:01 12° WNW visible
29 Jan 2.1 02:37:26 10° W 02:40:24 36° NNW 02:41:10 31° NNE visible
30 Jan 3.6 03:15:07 10° WNW 03:16:28 18° NW 03:16:28 18° NW visible
